Regional Weather Roundup
Issued by NWS State College, PA

Home | Current Version | Previous Version | Text Only | Print | Product List | Glossary On
Versions: 1 2 3 4 5 6 7 8 9 10 11 12 13 14 15 16 17 18 19 20 21 22 23 24 25 26 27 28 29 30 31 32 33 34 35 36 37 38 39 40 41 42 43 44 45 46 47 48 49 50
000
ASUS41 KCTP 090303
RWRCTP

REGIONAL WEATHER ROUNDUP
NATIONAL WEATHER SERVICE STATE COLLEGE PA
1000 PM EST THU DEC 08 2016

Note: "fair" indicates few or no clouds below 12,000 feet with no
significant weather and/or obstructions to visibility.

* = STATION THAT DOES NOT REPORT PRECIPITATION /E.G. RAIN...SNOW...ETC/
    THUNDER OR FOG.

PAZ002>004-007>009-013>016-020>023-029>032-090400-
WESTERN PENNSYLVANIA

CITY           SKY/WX    TMP DP  RH WIND       PRES   REMARKS
ERIE           LGT SNOW  31  23  72 W17G26    30.12S
MEADVILLE      LGT SNOW  22  18  85 W14       30.12S FOG     WCI   9
FRANKLIN*        N/A     21  14  73 W13       30.13S WCI   9
NEW CASTLE     FLURRIES  23  17  78 W16G23    30.21R WCI  10
BEAVER COUNTY  NOT AVBL
BUTLER*        CLOUDY    23  12  63 W14G20    30.22R WCI  11
PITTSBURGH INT FLURRIES  25  15  66 W12G21    30.22R WCI  14
PITTSBURGH     CLOUDY    24  12  60 W12G18    30.21R WCI  13
INDIANA*       CLOUDY    23  16  74 W13G23    30.18S WCI  11
LATROBE        CLOUDY    23  16  74 W17G29    30.23R WCI   9
WASHINGTON CO* CLOUDY    21  14  73 SW10      30.24S WCI  10
$$

PAZ004>006-010>012-017>019-024>028-033>037-041-042-045-046-049>053-090400-
CENTRAL PENNSYLVANIA

CITY           SKY/WX    TMP DP  RH WIND       PRES   REMARKS
BRADFORD       LGT SNOW  21  17  84 W13G22    30.00R FOG     WCI   9
DUBOIS         LGT SNOW  22  14  71 W17       30.08R WCI   8
CLEARFIELD     FLURRIES  24  16  71 W15G25    30.08S WCI  11
JOHNSTOWN      CLOUDY    20  13  74 W20G32    30.08R WCI   4
ALTOONA        CLOUDY    26  14  60 W13       30.12S WCI  15
STATE COLLEGE  NOT AVBL
WILLIAMSPORT   CLOUDY    31  16  54 W8        30.07R
SELINSGROVE    CLOUDY    30  16  56 VRB6      30.11S
FT INDIANTOWN  MOCLDY    30  13  48 W12       30.11R
CAPITAL CITY   PTCLDY    31  12  45 W8        30.13S
HARRISBURG     MOCLDY    31  16  54 W6        30.13R
YORK           CLEAR     29  18  63 W12       30.13R
$$

PAZ038>040-043-044-047-048-054-055-060>062-067>071-090400-
EASTERN PENNSYLVANIA

CITY           SKY/WX    TMP DP  RH WIND       PRES   REMARKS
SCRANTON       CLOUDY    32  14  47 W15G26    29.99R
MOUNT POCONO   PTCLDY    25  15  66 W15G25    29.91R WCI  13
ALLENTOWN      CLOUDY    33  14  45 W17G26    30.04R
QUAKERTOWN*    MOCLDY    32  16  51 W12G20    30.05R
READING        PTCLDY    30  13  49 W14       30.09R
LANCASTER      CLEAR     29  17  61 W14       30.10F
COATESVILLE    CLEAR     28  14  54 NW13G21   30.10R
POTTSTOWN      CLEAR     30  13  49 W9G20     30.09R
BLUE BELL      CLEAR     32  16  51 W12       30.06R
DOYLESTOWN     PTCLDY    32  16  51 W14G24    30.04R
WILLOW GROVE   NOT AVBL
NORTH PHILA    CLEAR     34  15  46 W17G25    30.08R
PHILADELPHIA   CLEAR     34  14  43 W17G28    30.10R
$$



USA.gov is the U.S. government's official web portal to all federal, state and local government web resources and services.